Time,TemperatureF,DewpointF,PressureIn,WindDirection,WindDirectionDegrees,WindSpeedMPH,WindSpeedGustMPH,Humidity,HourlyPrecipIn,Conditions,Clouds,dailyrainin,SoftwareType,DateUTC
2013-03-11 00:10:00,34.1,31.0,30.32,SSW,211,1.0,-999.0,87,-99.99,,,0.00,weatherlink.com 1.10,2013-03-11 04:10:00,
2013-03-11 00:25:00,34.1,31.0,30.32,South,179,4.0,-999.0,88,-99.99,,,0.00,weatherlink.com 1.10,2013-03-11 04:25:00,
2013-03-11 00:40:00,34.1,31.0,30.31,SSW,207,0.0,-999.0,88,-99.99,,,0.00,weatherlink.com 1.10,2013-03-11 04:40:00,
2013-03-11 00:55:00,34.2,31.0,30.30,South,175,4.0,-999.0,88,-99.99,,,0.00,weatherlink.com 1.10,2013-03-11 04:55:00,
2013-03-11 01:10:00,34.3,31.0,30.31,SSW,203,1.0,-999.0,88,-99.99,,,0.00,weatherlink.com 1.10,2013-03-11 05:10:00,
2013-03-11 01:25:00,34.4,31.0,30.31,SW,221,3.0,-999.0,88,-99.99,,,0.00,weatherlink.com 1.10,2013-03-11 05:25:00,
2013-03-11 01:40:00,34.4,31.0,30.31,SSW,210,8.0,-999.0,88,-99.99,,,0.00,weatherlink.com 1.10,2013-03-11 05:40:00,
2013-03-11 01:55:00,34.4,31.0,30.30,WSW,238,1.0,-999.0,88,-99.99,,,0.00,weatherlink.com 1.10,2013-03-11 05:55:00,
2013-03-11 02:10:00,34.3,31.0,30.29,SSW,207,7.0,-999.0,88,-99.99,,,0.00,weatherlink.com 1.10,2013-03-11 06:10:00,
2013-03-11 02:25:00,34.4,31.0,30.29,SW,217,4.0,-999.0,87,-99.99,,,0.00,weatherlink.com 1.10,2013-03-11 06:25:00,
2013-03-11 02:40:00,34.4,31.0,30.28,SSW,209,1.0,-999.0,87,-99.99,,,0.00,weatherlink.com 1.10,2013-03-11 06:40:00,
2013-03-11 02:55:00,34.4,31.0,30.28,SW,220,7.0,-999.0,87,-99.99,,,0.00,weatherlink.com 1.10,2013-03-11 06:55:00,
2013-03-11 03:10:00,34.4,31.0,30.28,SSW,206,5.0,-999.0,87,-99.99,,,0.00,weatherlink.com 1.10,2013-03-11 07:10:00,
2013-03-11 03:25:00,34.4,31.0,30.27,SE,136,5.0,-999.0,87,-99.99,,,0.00,weatherlink.com 1.10,2013-03-11 07:25:00,
2013-03-11 03:40:00,34.3,31.0,30.27,SSW,205,1.0,-999.0,87,-99.99,,,0.00,weatherlink.com 1.10,2013-03-11 07:40:00,
2013-03-11 03:55:00,34.3,31.0,30.27,SW,216,4.0,-999.0,87,-99.99,,,0.00,weatherlink.com 1.10,2013-03-11 07:55:00,
2013-03-11 04:10:00,34.3,31.0,30.27,SSW,213,0.0,-999.0,87,-99.99,,,0.00,weatherlink.com 1.10,2013-03-11 08:10:00,
2013-03-11 04:25:00,34.4,31.0,30.26,SW,221,1.0,-999.0,88,-99.99,,,0.00,weatherlink.com 1.10,2013-03-11 08:25:00,
2013-03-11 04:40:00,34.5,31.0,30.27,SSW,213,2.0,-999.0,88,-99.99,,,0.00,weatherlink.com 1.10,2013-03-11 08:40:00,
2013-03-11 04:55:00,34.7,31.0,30.27,SW,215,3.0,-999.0,87,-99.99,,,0.00,weatherlink.com 1.10,2013-03-11 08:55:00,
2013-03-11 05:10:00,34.9,31.0,30.27,SW,220,1.0,-999.0,87,-99.99,,,0.00,weatherlink.com 1.10,2013-03-11 09:10:00,
2013-03-11 05:25:00,34.9,31.0,30.27,SSW,200,2.0,-999.0,87,-99.99,,,0.00,weatherlink.com 1.10,2013-03-11 09:25:00,
2013-03-11 05:40:00,35.0,31.0,30.26,SW,217,1.0,-999.0,86,-99.99,,,0.00,weatherlink.com 1.10,2013-03-11 09:40:00,
2013-03-11 05:55:00,35.0,31.0,30.26,SSW,205,4.0,-999.0,86,-99.99,,,0.00,weatherlink.com 1.10,2013-03-11 09:55:00,
2013-03-11 06:10:00,35.1,31.0,30.25,SSW,213,2.0,-999.0,86,-99.99,,,0.00,weatherlink.com 1.10,2013-03-11 10:10:00,
2013-03-11 06:25:00,35.3,32.0,30.25,SW,219,3.0,-999.0,86,-99.99,,,0.00,weatherlink.com 1.10,2013-03-11 10:25:00,
2013-03-11 06:40:00,35.4,32.0,30.25,West,261,3.0,-999.0,86,-99.99,,,0.00,weatherlink.com 1.10,2013-03-11 10:40:00,
2013-03-11 06:55:00,35.6,32.0,30.25,SW,222,6.0,-999.0,86,-99.99,,,0.00,weatherlink.com 1.10,2013-03-11 10:55:00,
2013-03-11 07:10:00,35.7,32.0,30.25,SW,222,4.0,-999.0,86,-99.99,,,0.00,weatherlink.com 1.10,2013-03-11 11:10:00,
2013-03-11 07:25:00,36.0,32.0,30.25,SW,223,7.0,-999.0,86,-99.99,,,0.00,weatherlink.com 1.10,2013-03-11 11:25:00,
2013-03-11 07:40:00,36.1,32.0,30.25,SW,229,4.0,-999.0,86,-99.99,,,0.00,weatherlink.com 1.10,2013-03-11 11:40:00,
2013-03-11 07:55:00,36.2,32.0,30.25,SW,223,3.0,-999.0,86,-99.99,,,0.00,weatherlink.com 1.10,2013-03-11 11:55:00,
2013-03-11 08:10:00,36.4,33.0,30.25,South,174,2.0,-999.0,86,-99.99,,,0.00,weatherlink.com 1.10,2013-03-11 12:10:00,
2013-03-11 08:26:00,36.6,33.0,30.25,SW,229,5.0,-999.0,86,-99.99,,,0.00,weatherlink.com 1.10,2013-03-11 12:26:00,
2013-03-11 08:41:00,36.8,33.0,30.25,SW,230,7.0,-999.0,86,-99.99,,,0.00,weatherlink.com 1.10,2013-03-11 12:41:00,
2013-03-11 08:56:00,37.0,33.0,30.25,SW,217,7.0,-999.0,86,-99.99,,,0.00,weatherlink.com 1.10,2013-03-11 12:56:00,
2013-03-11 09:11:00,37.3,34.0,30.25,SW,219,3.0,-999.0,86,-99.99,,,0.00,weatherlink.com 1.10,2013-03-11 13:11:00,
2013-03-11 09:26:00,37.4,34.0,30.26,SW,220,8.0,-999.0,86,-99.99,,,0.00,weatherlink.com 1.10,2013-03-11 13:26:00,
2013-03-11 09:41:00,37.7,34.0,30.26,SSW,207,4.0,-999.0,86,-99.99,,,0.00,weatherlink.com 1.10,2013-03-11 13:41:00,
2013-03-11 09:56:00,38.3,35.0,30.26,SSE,165,4.0,-999.0,86,-99.99,,,0.00,weatherlink.com 1.10,2013-03-11 13:56:00,
2013-03-11 10:56:00,41.2,38.0,30.27,SSW,208,2.0,-999.0,88,-99.99,,,0.00,weatherlink.com 1.10,2013-03-11 14:56:00,
2013-03-11 11:26:00,42.6,40.0,30.26,SW,217,6.0,-999.0,89,-99.99,,,0.00,weatherlink.com 1.10,2013-03-11 15:26:00,
2013-03-11 11:41:00,43.0,39.0,30.26,SW,221,5.0,-999.0,86,-99.99,,,0.00,weatherlink.com 1.10,2013-03-11 15:41:00,
2013-03-11 11:56:00,42.9,39.0,30.26,SSW,195,3.0,-999.0,85,-99.99,,,0.00,weatherlink.com 1.10,2013-03-11 15:56:00,
2013-03-11 12:11:00,43.1,39.0,30.24,South,188,1.0,-999.0,85,-99.99,,,0.00,weatherlink.com 1.10,2013-03-11 16:11:00,
2013-03-11 12:26:00,43.8,39.0,30.24,South,176,2.0,-999.0,84,-99.99,,,0.00,weatherlink.com 1.10,2013-03-11 16:26:00,
2013-03-11 12:56:00,45.5,40.0,30.23,SW,222,6.0,-999.0,81,-99.99,,,0.00,weatherlink.com 1.10,2013-03-11 16:56:00,
2013-03-11 13:11:00,46.3,40.0,30.23,SSE,166,6.0,-999.0,79,-99.99,,,0.00,weatherlink.com 1.10,2013-03-11 17:11:00,
2013-03-11 13:26:00,46.4,40.0,30.23,SSW,209,4.0,-999.0,78,-99.99,,,0.00,weatherlink.com 1.10,2013-03-11 17:26:00,
2013-03-11 13:41:00,46.8,40.0,30.22,WSW,241,5.0,-999.0,76,-99.99,,,0.00,weatherlink.com 1.10,2013-03-11 17:41:00,
2013-03-11 13:56:00,47.7,40.0,30.21,SW,219,11.0,-999.0,75,-99.99,,,0.00,weatherlink.com 1.10,2013-03-11 17:56:00,
2013-03-11 14:11:00,48.6,40.0,30.21,SSW,206,4.0,-999.0,72,-99.99,,,0.00,weatherlink.com 1.10,2013-03-11 18:11:00,
2013-03-11 14:26:00,48.2,40.0,30.21,SE,132,6.0,-999.0,73,-99.99,,,0.00,weatherlink.com 1.10,2013-03-11 18:26:00,
2013-03-11 14:41:00,48.1,40.0,30.20,South,174,4.0,-999.0,74,-99.99,,,0.00,weatherlink.com 1.10,2013-03-11 18:41:00,
2013-03-11 14:57:00,47.6,40.0,30.20,SSE,165,2.0,-999.0,76,-99.99,,,0.00,weatherlink.com 1.10,2013-03-11 18:57:00,
2013-03-11 15:11:00,48.1,41.0,30.19,SE,129,6.0,-999.0,76,-99.99,,,0.00,weatherlink.com 1.10,2013-03-11 19:11:00,
2013-03-11 15:26:00,48.5,41.0,30.19,South,177,4.0,-999.0,75,-99.99,,,0.00,weatherlink.com 1.10,2013-03-11 19:26:00,
2013-03-11 15:42:00,48.6,41.0,30.19,SE,131,1.0,-999.0,75,-99.99,,,0.00,weatherlink.com 1.10,2013-03-11 19:42:00,
2013-03-11 15:56:00,48.7,41.0,30.19,SE,146,4.0,-999.0,75,-99.99,,,0.00,weatherlink.com 1.10,2013-03-11 19:56:00,
2013-03-11 16:11:00,48.4,41.0,30.18,SE,136,2.0,-999.0,75,-99.99,,,0.00,weatherlink.com 1.10,2013-03-11 20:11:00,
2013-03-11 16:26:00,48.5,41.0,30.18,SSE,156,2.0,-999.0,75,-99.99,,,0.00,weatherlink.com 1.10,2013-03-11 20:26:00,
2013-03-11 16:41:00,48.1,41.0,30.18,SSW,205,0.0,-999.0,75,-99.99,,,0.00,weatherlink.com 1.10,2013-03-11 20:41:00,
2013-03-11 16:57:00,47.9,41.0,30.17,SSE,167,4.0,-999.0,76,-99.99,,,0.00,weatherlink.com 1.10,2013-03-11 20:57:00,
2013-03-11 17:12:00,47.3,40.0,30.17,SSW,202,3.0,-999.0,77,-99.99,,,0.00,weatherlink.com 1.10,2013-03-11 21:12:00,
2013-03-11 17:27:00,46.8,40.0,30.17,SSE,157,2.0,-999.0,78,-99.99,,,0.00,weatherlink.com 1.10,2013-03-11 21:27:00,
2013-03-11 17:42:00,46.2,40.0,30.17,SSE,167,2.0,-999.0,80,-99.99,,,0.00,weatherlink.com 1.10,2013-03-11 21:42:00,
2013-03-11 17:57:00,45.7,40.0,30.16,SSW,203,3.0,-999.0,81,-99.99,,,0.00,weatherlink.com 1.10,2013-03-11 21:57:00,
2013-03-11 18:12:00,45.4,40.0,30.16,South,190,6.0,-999.0,82,-99.99,,,0.00,weatherlink.com 1.10,2013-03-11 22:12:00,
2013-03-11 18:27:00,45.2,40.0,30.16,SE,128,6.0,-999.0,83,-99.99,,,0.00,weatherlink.com 1.10,2013-03-11 22:27:00,
2013-03-11 18:42:00,45.0,41.0,30.17,SSW,195,2.0,-999.0,84,-99.99,,,0.00,weatherlink.com 1.10,2013-03-11 22:42:00,
2013-03-11 18:57:00,44.8,40.0,30.16,SE,146,1.0,-999.0,84,-99.99,,,0.00,weatherlink.com 1.10,2013-03-11 22:57:00,
2013-03-11 19:12:00,44.7,41.0,30.16,SSE,148,1.0,-999.0,85,-99.99,,,0.00,weatherlink.com 1.10,2013-03-11 23:12:00,
2013-03-11 19:28:00,44.5,41.0,30.16,SSE,153,4.0,-999.0,86,-99.99,,,0.00,weatherlink.com 1.10,2013-03-11 23:28:00,
2013-03-11 19:42:00,44.4,41.0,30.16,SSE,157,4.0,-999.0,87,-99.99,,,0.00,weatherlink.com 1.10,2013-03-11 23:42:00,
2013-03-11 19:57:00,44.4,41.0,30.16,SE,140,7.0,-999.0,87,-99.99,,,0.00,weatherlink.com 1.10,2013-03-11 23:57:00,
2013-03-11 20:12:00,44.4,41.0,30.16,South,188,5.0,-999.0,88,-99.99,,,0.00,weatherlink.com 1.10,2013-03-12 00:12:00,
2013-03-11 20:27:00,44.4,41.0,30.17,SE,137,2.0,-999.0,88,-99.99,,,0.00,weatherlink.com 1.10,2013-03-12 00:27:00,
2013-03-11 20:42:00,44.4,41.0,30.16,South,178,6.0,-999.0,88,-99.99,,,0.00,weatherlink.com 1.10,2013-03-12 00:42:00,
2013-03-11 20:57:00,44.3,41.0,30.16,SSW,199,5.0,-999.0,87,-99.99,,,0.00,weatherlink.com 1.10,2013-03-12 00:57:00,
2013-03-11 21:12:00,44.3,41.0,30.16,South,169,4.0,-999.0,87,-99.99,,,0.00,weatherlink.com 1.10,2013-03-12 01:12:00,
2013-03-11 21:27:00,44.2,41.0,30.16,SE,136,4.0,-999.0,87,-99.99,,,0.00,weatherlink.com 1.10,2013-03-12 01:27:00,
2013-03-11 21:42:00,44.1,41.0,30.16,South,179,5.0,-999.0,87,-99.99,,,0.00,weatherlink.com 1.10,2013-03-12 01:42:00,
2013-03-11 21:57:00,44.0,40.0,30.15,ESE,121,6.0,-999.0,87,-99.99,,,0.00,weatherlink.com 1.10,2013-03-12 01:57:00,
2013-03-11 22:12:00,44.1,41.0,30.15,SSE,162,6.0,-999.0,87,-99.99,,,0.00,weatherlink.com 1.10,2013-03-12 02:12:00,
2013-03-11 22:27:00,44.1,40.0,30.15,South,181,2.0,-999.0,86,-99.99,,,0.00,weatherlink.com 1.10,2013-03-12 02:27:00,
2013-03-11 22:42:00,44.0,40.0,30.15,SE,128,1.0,-999.0,86,-99.99,,,0.00,weatherlink.com 1.10,2013-03-12 02:42:00,
2013-03-11 23:12:00,44.6,41.0,30.13,South,180,2.0,-999.0,86,-99.99,,,0.00,weatherlink.com 1.10,2013-03-12 03:12:00,
2013-03-11 23:27:00,45.0,41.0,30.12,South,183,1.0,-999.0,86,-99.99,,,0.00,weatherlink.com 1.10,2013-03-12 03:27:00,
2013-03-11 23:42:00,44.7,41.0,30.12,SSW,211,3.0,-999.0,86,-99.99,,,0.00,weatherlink.com 1.10,2013-03-12 03:42:00,
2013-03-11 23:57:00,44.5,41.0,30.12,SSW,207,2.0,-999.0,86,-99.99,,,0.00,weatherlink.com 1.10,2013-03-12 03:57:00,